GALAXY 3C (G-3C)

Last updated on Sun Apr 12 2026 00:02:50 GMT+0000 (Coordinated Universal Time)

1 27445U 02030A 26101.50188397 -.00000148 00000+0 00000+0 0 9990 2 27445 3.5570 78.8851 0001718 23.8562 182.8028 1.00271638 45820
UTC large
Height (km)
Speed (km/s)
/
Latitude / Longitude
Inclination (degrees)
Orbital Period (minutes)
Azimuth
Elevation
Range (km)
Doppler Factor

Next 0 passes for location: London (51.5072 / 0.1276)

Sorry there are no passes over London.
GALAXY 3C (G-3C)